Location: Unspecified
(0.0000°N, 0.0000°E)
Time: 19:03:57
(UTC+00:00)

Vanguard 1 Rocket - Pass Details

Date: 07 October 2023
Orbit: 650 x 4218 km, 34.3° (Epoch: 13 October)

Event Time Altitude Azimuth Distance (km) Brightness Sun altitude
Rises 19:27:44 0° 273° (W) 4,873 12.5 -24.9°
Reaches altitude 10° 19:31:02 10° 284° (WNW) 4,308 11.7 -25.7°
Maximum altitude 19:41:40 30° 341° (NNW) 4,126 10.7 -28.3°
Drops below altitude 10° 19:59:04 10° 35° (NE) 6,963 11.5 -32.6°
Enters shadow 19:59:40 - 36° (NE) 7,070 11.5 -32.8°
